| time (UTC) | temp F | wind direction | speed MPH | gust MPH | rain 1hr in | rain 24hr in | rain mn in | humidity % | barometer mb |
| 20260505041546 | 62 | 293 | 0.0 | 1.0 | 0.00 | 0.00 | 0.00 | 75 | 1012.0 |
| 20260505040100 | 63 | 0 | 0.0 | 1.0 | 0.00 | 0.00 | 0.00 | 75 | 1011.8 |
| 20260505034550 | 64 | 167 | 0.0 | 2.0 | 0.00 | 0.00 | 0.00 | 74 | 1011.6 |
| 20260505033043 | 65 | 0 | 0.0 | 0.0 | 0.00 | 0.00 | 0.00 | 71 | 1011.4 |
| 20260505031550 | 66 | 319 | 0.0 | 2.0 | 0.00 | 0.00 | 0.00 | 70 | 1011.1 |
| 20260505030044 | 68 | 326 | 0.0 | 3.0 | 0.00 | 0.00 | 0.00 | 67 | 1010.9 |
| 20260505024543 | 70 | 0 | 0.0 | 4.0 | 0.00 | 0.00 | 0.00 | 68 | 1010.8 |
| 20260505023051 | 71 | 0 | 0.0 | 4.0 | 0.00 | 0.00 | 0.00 | 67 | 1010.7 |
| 20260505021545 | 73 | 0 | 1.0 | 3.0 | 0.00 | 0.00 | 0.00 | 63 | 1010.6 |
| 20260505020044 | 75 | 264 | 0.0 | 4.0 | 0.00 | 0.00 | 0.00 | 60 | 1010.7 |
| 20260505014549 | 75 | 312 | 1.0 | 3.0 | 0.00 | 0.00 | 0.00 | 58 | 1010.7 |
| 20260505013047 | 75 | 256 | 2.0 | 6.0 | 0.00 | 0.00 | 0.00 | 61 | 1010.7 |
| 20260505011547 | 75 | 283 | 1.0 | 5.0 | 0.00 | 0.00 | 0.00 | 59 | 1010.8 |
| 20260505010059 | 75 | 179 | 1.0 | 4.0 | 0.00 | 0.00 | 0.00 | 60 | 1010.9 |
| 20260505004549 | 75 | 258 | 3.0 | 6.0 | 0.00 | 0.00 | 0.00 | 57 | 1010.9 |
| 20260505003053 | 74 | 293 | 2.0 | 4.0 | 0.00 | 0.00 | 0.00 | 59 | 1011.0 |
| 20260505001545 | 74 | 214 | 2.0 | 6.0 | 0.00 | 0.00 | 0.00 | 60 | 1011.1 |
| 20260505000055 | 74 | 175 | 2.0 | 8.0 | 0.00 | 0.00 | 0.00 | 61 | 1011.2 |
| 20260504234603 | 74 | 264 | 1.0 | 5.0 | 0.00 | 0.00 | 0.00 | 62 | 1011.2 |
| 20260504233042 | 74 | 224 | 1.0 | 5.0 | 0.00 | 0.00 | 0.00 | 61 | 1011.2 |
| 20260504231541 | 73 | 300 | 1.0 | 6.0 | 0.00 | 0.00 | 0.00 | 62 | 1011.3 |
| 20260504230041 | 72 | 325 | 3.0 | 8.0 | 0.00 | 0.00 | 0.00 | 64 | 1011.4 |
| 20260504224547 | 72 | 298 | 3.0 | 9.0 | 0.00 | 0.00 | 0.00 | 62 | 1011.5 |
| 20260504223046 | 72 | 208 | 1.0 | 5.0 | 0.00 | 0.00 | 0.00 | 61 | 1011.8 |
| 20260504221546 | 72 | 288 | 0.0 | 4.0 | 0.00 | 0.00 | 0.00 | 64 | 1012.0 |
| 20260504220056 | 71 | 182 | 2.0 | 5.0 | 0.00 | 0.00 | 0.00 | 66 | 1012.3 |
| 20260504214544 | 70 | 304 | 1.0 | 6.0 | 0.00 | 0.00 | 0.00 | 65 | 1012.4 |
| 20260504213108 | 69 | 338 | 2.0 | 5.0 | 0.00 | 0.00 | 0.00 | 72 | 1012.5 |
| 20260504211545 | 68 | 284 | 1.0 | 6.0 | 0.00 | 0.00 | 0.00 | 68 | 1012.6 |
| 20260504210047 | 68 | 172 | 2.0 | 6.0 | 0.00 | 0.00 | 0.00 | 69 | 1013.0 |
| 20260504204600 | 67 | 228 | 2.0 | 6.0 | 0.00 | 0.00 | 0.00 | 73 | 1013.3 |
| 20260504203049 | 66 | 301 | 3.0 | 8.0 | 0.00 | 0.00 | 0.00 | 71 | 1013.3 |
| 20260504201544 | 65 | 281 | 3.0 | 7.0 | 0.00 | 0.00 | 0.00 | 73 | 1013.4 |
| 20260504200047 | 65 | 223 | 1.0 | 6.0 | 0.00 | 0.00 | 0.00 | 73 | 1013.5 |
| 20260504194542 | 63 | 290 | 2.0 | 9.0 | 0.00 | 0.00 | 0.00 | 76 | 1013.8 |
| 20260504193106 | 63 | 262 | 5.0 | 9.0 | 0.00 | 0.00 | 0.00 | 78 | 1013.7 |
| 20260504191542 | 62 | 276 | 4.0 | 8.0 | 0.00 | 0.00 | 0.00 | 78 | 1013.8 |
| 20260504190053 | 63 | 252 | 1.0 | 9.0 | 0.00 | 0.00 | 0.00 | 80 | 1013.9 |
| 20260504184546 | 62 | 222 | 4.0 | 8.0 | 0.00 | 0.00 | 0.00 | 78 | 1013.8 |
| 20260504183056 | 62 | 134 | 1.0 | 9.0 | 0.00 | 0.00 | 0.00 | 77 | 1014.0 |
| 20260504181554 | 61 | 274 | 4.0 | 9.0 | 0.00 | 0.00 | 0.00 | 78 | 1014.0 |
| 20260504180131 | 61 | 273 | 1.0 | 6.0 | 0.00 | 0.00 | 0.00 | 80 | 1014.0 |
| 20260504174546 | 60 | 243 | 2.0 | 7.0 | 0.00 | 0.00 | 0.00 | 79 | 1014.1 |
| 20260504173050 | 60 | 207 | 3.0 | 7.0 | 0.00 | 0.00 | 0.00 | 80 | 1014.1 |
| 20260504171548 | 59 | 287 | 4.0 | 9.0 | 0.00 | 0.00 | 0.00 | 80 | 1014.0 |
| 20260504081545 | 59 | 0 | 0.0 | 0.0 | 0.00 | 0.00 | 0.00 | 75 | 1008.8 |